Location: Niles Junction
(37.5763°N, 121.9714°W)
Time: 04:15:55
(UTC+00:00)

Cosmos 2369 - Pass Details

Date: 29 October 2020
Orbit: 840 x 855 km, 71.0° (Epoch: 23 November)

Event Time Altitude Azimuth Distance (km) Brightness Sun altitude
Exits shadow 12:08:19 21° 355° (N) 1,793 5.4 -28.7°
Maximum altitude 12:11:55 52° 64° (ENE) 1,033 4.4 -28.0°
Drops below altitude 10° 12:17:23 10° 141° (SE) 2,449 6.5 -26.9°
Sets 12:19:53 0° 146° (SE) 3,380 7.2 -26.4°
